FW1404 Weather Reports


Display with metric or nautical units.
time (UTC)temp
F
wind
direction
speed
MPH
gust
MPH
rain 1hr
in
rain 24hr
in
rain mn
in
humidity
%
barometer
mb
20260905073552 65 276 13.0 18.0 0.00 0.17 0.00 71 1014.8
20260905073055 65 279 10.0 21.0 0.00 0.17 0.00 72 1014.8
20260905072553 65 280 8.0 21.0 0.00 0.17 0.00 73 1014.7
20260905071806 64 270 13.0 24.0 0.00 0.17 0.00 73 1014.7
20260905071305 64 289 9.0 24.0 0.00 0.17 0.00 73 1014.6
20260905071049 64 244 12.0 22.0 0.00 0.17 0.00 73 1014.5
20260905070305 64 266 11.0 22.0 0.00 0.17 0.00 76 1014.6
20260905065804 64 244 12.0 19.0 0.00 0.17 0.00 76 1014.4
20260905065554 63 259 9.0 19.0 0.00 0.17 0.00 76 1014.5
20260905064851 63 259 11.0 20.0 0.00 0.17 0.00 77 1014.4
20260905064835 63 277 9.0 19.0 0.00 0.17 0.00 76 1014.4
20260905064051 62 246 11.0 20.0 0.00 0.17 0.00 77 1014.4
20260905063305 62 238 10.0 17.0 0.00 0.17 0.00 78 1014.5
20260905062805 62 234 9.0 17.0 0.00 0.17 0.00 78 1014.5
20260905062306 62 242 8.0 15.0 0.00 0.17 0.00 79 1014.4
20260905061804 62 272 9.0 14.0 0.00 0.17 0.00 80 1014.5
20260905061305 61 251 9.0 14.0 0.00 0.17 0.00 80 1014.4
20260905061050 61 255 6.0 18.0 0.00 0.17 0.00 81 1014.5
20260905060247 60 265 11.0 18.0 0.00 0.17 0.00 83 1014.4
20260905060039 60 256 6.0 15.0 0.00 0.17 0.00 83 1014.4
20260905055245 60 231 6.0 19.0 0.00 0.17 0.00 84 1014.3
20260905054747 59 239 9.0 19.0 0.00 0.17 0.00 84 1014.2
20260905054247 59 265 8.0 13.0 0.00 0.17 0.00 85 1014.2
20260905053746 59 290 6.0 13.0 0.00 0.17 0.00 85 1014.1
20260905053244 58 246 7.0 13.0 0.00 0.17 0.00 86 1014.0
20260905052748 58 266 9.0 13.0 0.00 0.17 0.00 86 1014.0
20260905052245 58 246 8.0 14.0 0.00 0.17 0.00 86 1014.0
20260905051746 58 256 9.0 14.0 0.00 0.17 0.00 86 1013.9
20260905051246 58 276 6.0 15.0 0.00 0.17 0.00 86 1013.9
20260905050746 58 256 9.0 15.0 0.00 0.17 0.00 86 1013.7
20260905050244 58 255 10.0 14.0 0.00 0.17 0.00 87 1013.6
20260905045748 58 252 6.0 16.0 0.00 0.17 0.00 87 1013.6
20260905045245 58 222 6.0 16.0 0.00 0.17 0.00 87 1013.6
20260905044745 58 251 7.0 13.0 0.00 0.17 0.00 87 1013.5
20260905044246 58 232 6.0 11.0 0.00 0.17 0.00 87 1013.4
20260905044032 58 238 5.0 13.0 0.00 0.17 0.00 87 1013.4
20260905043244 58 258 9.0 13.0 0.00 0.17 0.00 87 1013.4
20260905042747 58 246 7.0 15.0 0.00 0.17 0.00 87 1013.2
20260905042244 58 276 7.0 15.0 0.00 0.17 0.00 87 1013.3
20260905041745 58 260 6.0 15.0 0.00 0.17 0.00 87 1013.1
20260905041543 58 255 8.0 13.0 0.00 0.17 0.00 87 1013.0
20260905040745 58 269 6.0 14.0 0.00 0.17 0.00 87 1013.0
20260905040243 58 252 11.0 16.0 0.00 0.17 0.00 87 1013.0
20260905040027 58 277 9.0 16.0 0.00 0.17 0.00 87 1012.9
20260905035243 58 232 8.0 13.0 0.00 0.17 0.00 87 1012.9
20260905034745 58 253 8.0 13.0 0.00 0.17 0.00 86 1012.9
20260905034245 59 287 8.0 16.0 0.00 0.17 0.00 87 1012.8
20260905033745 59 289 8.0 16.0 0.00 0.17 0.00 87 1012.8
20260905033242 59 277 7.0 12.0 0.00 0.17 0.00 87 1012.6
20260905033037 59 286 6.0 17.0 0.00 0.17 0.00 87 1012.6
20260905032525 59 265 9.0 17.0 0.00 0.17 0.00 87 1012.6
20260905031745 59 245 8.0 17.0 0.00 0.17 0.00 87 1012.6
20260905031244 59 259 11.0 17.0 0.00 0.17 0.00 87 1012.4
20260905030744 59 266 12.0 16.0 0.00 0.17 0.00 87 1012.3
20260905030244 59 283 7.0 16.0 0.00 0.17 0.00 87 1012.4
20260905025744 59 258 9.0 17.0 0.00 0.17 0.00 87 1012.2
20260905025540 59 282 8.0 17.0 0.00 0.17 0.00 87 1012.2
20260905024744 59 296 9.0 17.0 0.00 0.17 0.00 88 1012.2
20260905024243 59 286 10.0 17.0 0.00 0.17 0.00 88 1012.2
20260905023743 59 227 6.0 14.0 0.00 0.17 0.00 88 1012.1
20260905023241 59 268 7.0 14.0 0.00 0.17 0.00 88 1012.0
20260905022744 59 280 4.0 11.0 0.00 0.17 0.00 88 1012.0
20260905022241 59 259 5.0 14.0 0.00 0.17 0.00 88 1012.0
20260905021743 59 232 10.0 14.0 0.00 0.17 0.00 88 1011.9
20260905021242 59 255 8.0 14.0 0.00 0.17 0.00 88 1011.9
20260905020743 59 268 4.0 14.0 0.00 0.17 0.00 88 1011.8
20260905020241 59 289 7.0 14.0 0.00 0.17 0.00 88 1011.7
20260905015743 59 244 8.0 14.0 0.00 0.17 0.00 88 1011.7
20260905015240 59 277 6.0 14.0 0.00 0.17 0.00 88 1011.7
20260905014741 59 255 8.0 14.0 0.00 0.17 0.00 88 1011.6
20260905014242 59 248 7.0 12.0 0.00 0.17 0.00 88 1011.6
20260905013739 59 284 8.0 12.0 0.00 0.17 0.00 89 1011.5
20260905013239 60 277 4.0 14.0 0.00 0.17 0.00 89 1011.4
20260905012736 60 258 10.0 14.0 0.00 0.17 0.00 89 1011.6
20260905012232 60 265 9.0 16.0 0.00 0.17 0.00 89 1011.3
20260905011735 60 286 9.0 16.0 0.00 0.17 0.00 89 1011.4
20260905011234 60 277 9.0 16.0 0.00 0.17 0.00 89 1011.0
20260905010735 60 268 7.0 16.0 0.00 0.17 0.00 89 1011.3
20260905010232 60 339 4.0 16.0 0.00 0.17 0.00 89 1011.2
20260905010029 60 276 7.0 15.0 0.00 0.17 0.00 89 1011.3
20260905005529 60 297 6.0 15.0 0.00 0.17 0.00 89 1011.4
20260905004735 60 273 9.0 14.0 0.00 0.17 0.00 89 1011.0
20260905004235 60 273 7.0 16.0 0.00 0.17 0.00 89 1011.5
20260905003733 60 252 12.0 16.0 0.00 0.17 0.00 89 1011.1
20260905003232 60 246 9.0 16.0 0.00 0.17 0.00 89 1011.0
20260905002735 60 238 10.0 17.0 0.00 0.17 0.00 90 1011.0
20260905002233 60 210 7.0 17.0 0.00 0.17 0.00 90 1011.1
20260905001732 60 286 8.0 14.0 0.00 0.17 0.00 90 1011.2
20260905001234 60 255 10.0 20.0 0.00 0.17 0.00 90 1011.0
20260905000733 60 241 7.0 20.0 0.00 0.17 0.00 90 1011.0
20260905000233 60 248 9.0 17.0 0.00 0.17 0.00 90 1011.0
20260904235735 60 255 10.0 17.0 0.00 0.17 0.00 90 1011.0
20260904235232 60 262 9.0 14.0 0.00 0.17 0.00 90 1010.9
20260904234732 61 270 9.0 15.0 0.00 0.17 0.00 90 1010.9
20260904234610 61 258 10.0 17.0 0.00 0.17 0.00 90 1010.8
20260904234603 61 253 8.0 17.0 0.00 0.17 0.00 90 1010.7
20260904233234 61 268 6.0 16.0 0.00 0.17 0.00 90 1010.7
20260904232736 61 260 8.0 19.0 0.00 0.17 0.00 90 1010.5
20260904232233 61 268 10.0 19.0 0.00 0.17 0.00 90 1010.8
20260904231709 61 262 9.0 13.0 0.00 0.17 0.00 90 1010.9
20260904231206 61 270 9.0 15.0 0.00 0.17 0.00 90 1010.9
20260904230703 61 289 10.0 15.0 0.00 0.17 0.00 90 1010.5
20260904230205 61 218 8.0 16.0 0.00 0.17 0.00 89 1010.7
20260904225707 61 262 7.0 16.0 0.00 0.17 0.00 89 1010.4
20260904225204 61 242 7.0 15.0 0.01 0.17 0.00 89 1010.7
20260904224706 61 235 11.0 17.0 0.01 0.17 0.00 89 1010.5
20260904224206 61 244 8.0 17.0 0.02 0.17 0.00 89 1010.5
20260904223939 61 263 9.0 16.0 0.02 0.17 0.00 89 1010.3
20260904223203 61 232 6.0 15.0 0.02 0.17 0.00 89 1010.2
20260904222707 61 217 9.0 15.0 0.02 0.17 0.00 89 1010.3
20260904222205 61 234 5.0 16.0 0.02 0.17 0.00 89 1010.0
20260904221704 61 246 7.0 16.0 0.02 0.17 0.00 89 1010.2
20260904221210 61 232 6.0 15.0 0.03 0.17 0.00 89 1010.2
20260904220702 61 258 10.0 15.0 0.03 0.17 0.00 89 1009.6
20260904220204 61 238 6.0 16.0 0.04 0.17 0.00 89 1009.4
20260904215705 61 256 6.0 18.0 0.05 0.13 0.17 89 1009.2
20260904215203 61 262 11.0 18.0 0.04 0.13 0.17 89 1009.9
20260904214702 61 255 10.0 17.0 0.05 0.13 0.17 89 1009.6
20260904214207 61 289 11.0 14.0 0.05 0.13 0.16 89 1010.0
20260904213704 61 255 9.0 18.0 0.07 0.13 0.16 89 1009.8
20260904213446 61 232 13.0 18.0 0.07 0.13 0.16 89 1009.7
20260904212706 61 258 7.0 13.0 0.07 0.13 0.16 88 1009.5
20260904212202 61 283 8.0 15.0 0.07 0.13 0.15 88 1009.3
20260904211702 60 279 8.0 18.0 0.07 0.13 0.15 88 1009.1
20260904211204 60 270 12.0 18.0 0.07 0.13 0.14 88 1009.1
20260904210702 60 256 9.0 16.0 0.07 0.13 0.14 88 1009.1
20260904210202 60 251 7.0 21.0 0.07 0.13 0.13 88 1009.3
20260904205704 61 259 12.0 21.0 0.07 0.06 0.13 88 1009.4
20260904205151 61 265 9.0 14.0 0.08 0.06 0.13 88 1009.4
20260904204839 61 255 7.0 14.0 0.07 0.06 0.10 87 1009.0
20260904204758 61 244 7.0 13.0 0.08 0.06 0.12 88 1009.1
20260904203642 61 227 9.0 15.0 0.06 0.06 0.09 87 1009.4
20260904203138 61 244 7.0 15.0 0.06 0.06 0.09 87 1009.2
20260904202639 61 249 9.0 16.0 0.07 0.06 0.09 87 1009.2
20260904202135 61 262 9.0 16.0 0.06 0.06 0.08 86 1009.1
20260904201937 61 282 7.0 15.0 0.06 0.06 0.08 86 1008.7
20260904201135 61 215 8.0 14.0 0.06 0.06 0.07 86 1008.9
20260904200638 61 229 10.0 14.0 0.06 0.06 0.07 86 1009.0
20260904200135 61 256 5.0 15.0 0.05 0.06 0.06 85 1008.8
20260904195646 61 224 9.0 15.0 0.05 0.01 0.05 85 1009.0
20260904195137 61 238 9.0 13.0 0.04 0.01 0.04 84 1008.7
20260904194639 61 248 9.0 13.0 0.03 0.01 0.03 84 1008.7
20260904194136 62 246 7.0 15.0 0.02 0.01 0.03 83 1009.0
20260904193634 62 268 5.0 17.0 0.02 0.01 0.02 82 1009.3
20260904193131 62 270 5.0 17.0 0.02 0.01 0.02 81 1009.5
20260904192639 62 234 6.0 17.0 0.01 0.01 0.02 80 1009.2
20260904192419 63 283 9.0 15.0 0.01 0.01 0.02 79 1009.1
20260904191635 63 266 9.0 17.0 0.01 0.01 0.02 79 1009.3
20260904191137 64 299 9.0 19.0 0.01 0.01 0.02 78 1009.5
20260904190635 64 301 12.0 20.0 0.01 0.01 0.02 78 1009.6
20260904190133 65 341 11.0 20.0 0.00 0.01 0.01 76 1009.8
20260904185641 65 265 13.0 20.0 0.00 0.01 0.01 77 1009.6
20260904185133 65 239 5.0 15.0 0.00 0.01 0.01 77 1009.6
20260904184913 65 273 8.0 19.0 0.00 0.01 0.01 77 1009.5
20260904184423 65 294 11.0 19.0 0.00 0.01 0.01 77 1009.5
20260904183637 65 294 9.0 17.0 0.00 0.01 0.01 77 1009.0
20260904183135 66 287 5.0 16.0 0.00 0.01 0.01 77 1008.7
20260904182640 65 318 8.0 16.0 0.00 0.01 0.01 77 1008.9
20260904182134 66 265 6.0 15.0 0.00 0.01 0.01 77 1008.5
20260904181634 66 289 6.0 15.0 0.00 0.01 0.01 77 1008.3
20260904181149 66 270 6.0 12.0 0.00 0.01 0.01 77 1008.3
20260904180634 66 270 7.0 18.0 0.00 0.01 0.01 78 1008.2
20260904180131 66 277 12.0 18.0 0.00 0.01 0.01 78 1008.1
20260904175932 66 275 6.0 11.0 0.00 0.01 0.01 78 1008.0
20260904175131 66 270 7.0 15.0 0.00 0.01 0.01 78 1007.9
20260904174635 66 265 7.0 15.0 0.01 0.01 0.01 78 1007.7
20260904174416 66 284 7.0 22.0 0.01 0.01 0.01 78 1007.6
20260904173636 66 327 11.0 22.0 0.01 0.01 0.01 78 1007.5
20260904173133 67 255 8.0 17.0 0.01 0.01 0.01 78 1007.3
20260904172653 67 279 10.0 17.0 0.01 0.01 0.01 78 1007.3
20260904172133 67 269 10.0 15.0 0.01 0.01 0.01 79 1007.2
20260904171637 68 277 8.0 17.0 0.01 0.01 0.01 80 1007.2
20260904171136 68 228 8.0 17.0 0.01 0.01 0.01 80 1007.1
20260904170635 69 270 7.0 16.0 0.01 0.01 0.01 80 1007.0
20260904170133 71 311 9.0 19.0 0.01 0.01 0.01 79 1006.9
20260904165640 72 294 10.0 23.0 0.01 0.00 0.01 79 1006.5
20260904165131 74 315 12.0 37.0 0.01 0.00 0.01 77 1006.6
20260904164634 77 325 28.0 37.0 0.00 0.00 0.00 71 1006.6
20260904164135 78 234 10.0 20.0 0.00 0.00 0.00 70 1005.1
20260904163636 78 228 10.0 21.0 0.00 0.00 0.00 68 1004.7
20260904163145 78 218 11.0 21.0 0.00 0.00 0.00 68 1004.7
20260904162640 78 211 11.0 16.0 0.00 0.00 0.00 68 1004.9
20260904162132 78 255 10.0 17.0 0.00 0.00 0.00 68 1005.1
20260904161632 78 228 11.0 19.0 0.00 0.00 0.00 68 1005.2
20260904161130 78 234 13.0 19.0 0.00 0.00 0.00 68 1005.1
20260904160924 78 265 10.0 20.0 0.00 0.00 0.00 68 1005.2
20260904160130 78 213 11.0 20.0 0.00 0.00 0.00 68 1005.0
20260904155923 78 246 10.0 20.0 0.00 0.00 0.00 68 1005.2
20260904155128 78 217 15.0 20.0 0.00 0.00 0.00 68 1005.3
20260904154928 78 218 10.0 18.0 0.00 0.00 0.00 68 1005.3
20260904154131 78 221 8.0 22.0 0.00 0.00 0.00 68 1005.4
20260904153717 78 229 11.0 22.0 0.00 0.00 0.00 68 1005.4
20260904153659 78 228 13.0 22.0 0.00 0.00 0.00 68 1005.4
20260904152646 78 280 7.0 26.0 0.00 0.00 0.00 68 1005.5
20260904152127 78 235 15.0 26.0 0.00 0.00 0.00 68 1005.4
20260904151642 78 238 11.0 27.0 0.00 0.00 0.00 68 1005.5
20260904151127 78 228 14.0 29.0 0.00 0.00 0.00 68 1005.5
20260904150629 78 268 18.0 29.0 0.00 0.00 0.00 68 1005.5
20260904150138 77 244 15.0 22.0 0.00 0.00 0.00 68 1005.7
20260904145626 77 228 13.0 21.0 0.00 0.00 0.00 68 1005.7
20260904145404 0 0.0 0.0 0.00 0.00 0.00
20260904144909 77 248 14.0 27.0 0.00 0.00 0.00 69 1005.9
20260904144348 77 248 14.0 27.0 0.00 0.00 0.00 69 1005.9
20260904143850 77 235 10.0 18.0 0.00 0.00 0.00 69 1006.0
20260904143347 77 227 12.0 23.0 0.00 0.00 0.00 68 1006.0
20260904143130 77 211 14.0 23.0 0.00 0.00 0.00 68 1006.1
20260904142344 78 248 17.0 21.0 0.00 0.00 0.00 68 1006.1
20260904141848 78 234 12.0 23.0 0.00 0.00 0.00 68 1006.3
20260904141347 78 228 11.0 26.0 0.00 0.00 0.00 68 1006.4
20260904140903 78 229 15.0 26.0 0.00 0.00 0.00 68 1006.4
20260904140629 78 211 9.0 23.0 0.00 0.00 0.00 68 1006.4
20260904135851 78 234 14.0 24.0 0.00 0.00 0.00 69 1006.5
20260904135347 78 222 8.0 24.0 0.00 0.00 0.00 68 1006.3
20260904134848 78 204 10.0 21.0 0.00 0.00 0.00 69 1006.5
20260904134347 77 210 9.0 18.0 0.00 0.00 0.00 69 1006.6
20260904134153 77 231 11.0 19.0 0.00 0.00 0.00 69 1006.8
20260904133345 77 235 8.0 32.0 0.00 0.00 0.00 70 1006.9
20260904132849 77 237 19.0 32.0 0.00 0.00 0.00 70 1006.7
20260904132345 76 237 12.0 21.0 0.00 0.00 0.00 70 1007.0
20260904131847 76 222 13.0 19.0 0.00 0.00 0.00 70 1007.0
20260904131346 76 239 7.0 26.0 0.00 0.00 0.00 70 1007.2
20260904130847 76 225 14.0 26.0 0.00 0.00 0.00 70 1007.3
20260904130344 76 244 17.0 24.0 0.00 0.00 0.00 69 1007.3
20260904125849 77 224 10.0 21.0 0.00 0.00 0.00 69 1007.4
20260904125344 77 255 11.0 21.0 0.00 0.00 0.00 69 1007.6
20260904124847 77 255 9.0 26.0 0.00 0.00 0.00 68 1007.6
20260904124347 77 269 13.0 26.0 0.00 0.00 0.00 69 1007.8
20260904123847 77 234 15.0 23.0 0.00 0.00 0.00 69 1007.8
20260904123344 77 229 15.0 22.0 0.00 0.00 0.00 68 1007.8
20260904122848 77 275 11.0 19.0 0.00 0.00 0.00 69 1007.8
20260904122344 77 277 11.0 26.0 0.00 0.00 0.00 69 1008.0
20260904121846 77 258 15.0 26.0 0.00 0.00 0.00 68 1008.1
20260904121345 77 256 17.0 32.0 0.00 0.00 0.00 68 1008.4
20260904120846 77 221 22.0 32.0 0.00 0.00 0.00 62 1008.3
20260904120632 77 242 8.0 17.0 0.00 0.00 0.00 64 1008.4
20260904115848 77 245 12.0 23.0 0.00 0.00 0.00 64 1008.5
20260904115343 77 249 13.0 23.0 0.00 0.00 0.00 63 1008.5
20260904114846 76 246 12.0 28.0 0.00 0.00 0.00 64 1008.5
20260904114626 76 242 17.0 28.0 0.00 0.00 0.00 64 1008.5
20260904113846 76 244 8.0 18.0 0.00 0.00 0.00 67 1008.7
20260904113342 75 260 12.0 18.0 0.00 0.00 0.00 66 1008.8
20260904112848 75 237 12.0 18.0 0.00 0.00 0.00 67 1008.9
20260904112622 75 234 10.0 22.0 0.00 0.00 0.00 67 1009.1
20260904111844 75 208 17.0 22.0 0.00 0.00 0.00 67 1009.1
20260904111425 74 207 14.0 21.0 0.00 0.00 0.00 69 1009.3
20260904111409 75 249 11.0 21.0 0.00 0.00 0.00 68 1009.2
20260904110342 74 222 11.0 18.0 0.00 0.00 0.00 69 1009.3
20260904105847 74 242 10.0 18.0 0.00 0.00 0.00 70 1009.4
20260904105341 73 200 12.0 16.0 0.00 0.00 0.00 71 1009.3
20260904104845 73 210 10.0 16.0 0.00 0.00 0.00 72 1009.4
20260904104343 72 221 10.0 24.0 0.00 0.00 0.00 72 1009.6
20260904103843 72 256 11.0 24.0 0.00 0.00 0.00 72 1009.7
20260904103342 72 245 11.0 16.0 0.00 0.00 0.00 72 1009.9
20260904102846 72 229 12.0 20.0 0.00 0.00 0.00 73 1009.7
20260904102341 72 231 11.0 20.0 0.00 0.00 0.00 73 1009.8
20260904101843 72 225 9.0 18.0 0.00 0.00 0.00 73 1009.8
20260904101343 72 248 9.0 14.0 0.00 0.00 0.00 74 1009.9
20260904100844 71 229 8.0 14.0 0.00 0.00 0.00 74 1010.1
20260904100340 71 238 10.0 17.0 0.00 0.00 0.00 74 1010.1
20260904095845 72 224 12.0 19.0 0.00 0.00 0.00 72 1010.2
20260904095341 73 221 10.0 19.0 0.00 0.00 0.00 72 1010.3
20260904094843 73 258 11.0 19.0 0.00 0.00 0.00 72 1010.1
20260904094341 73 260 11.0 20.0 0.00 0.00 0.00 72 1010.4
20260904093843 73 238 14.0 20.0 0.00 0.00 0.00 72 1010.5
20260904093340 73 229 10.0 19.0 0.00 0.00 0.00 74 1010.7
20260904092844 72 225 15.0 20.0 0.00 0.00 0.00 74 1010.9
20260904092340 72 217 15.0 20.0 0.00 0.00 0.00 74 1011.0
20260904091845 71 218 13.0 18.0 0.00 0.00 0.00 76 1011.0
20260904091342 71 231 9.0 18.0 0.00 0.00 0.00 77 1011.1
20260904090842 70 201 11.0 16.0 0.00 0.00 0.00 76 1011.1
20260904090344 70 203 12.0 16.0 0.00 0.00 0.00 76 1011.2
20260904085849 70 201 11.0 16.0 0.00 0.00 0.00 77 1011.3
20260904085338 69 190 12.0 15.0 0.00 0.00 0.00 76 1011.3
20260904084840 69 228 9.0 17.0 0.00 0.00 0.00 75 1011.4
20260904084340 69 214 12.0 18.0 0.00 0.00 0.00 74 1011.5
20260904084126 70 228 11.0 19.0 0.00 0.00 0.00 74 1011.7
20260904083341 70 211 11.0 19.0 0.00 0.00 0.00 74 1011.8
20260904082843 70 197 14.0 19.0 0.00 0.00 0.00 74 1011.7
20260904082351 70 265 9.0 15.0 0.00 0.00 0.00 74 1011.9
20260904081842 70 228 11.0 15.0 0.00 0.00 0.00 74 1011.8
20260904081341 70 235 8.0 15.0 0.00 0.00 0.00 75 1011.8
20260904080841 70 266 6.0 15.0 0.00 0.00 0.00 75 1011.8
20260904080339 70 186 11.0 18.0 0.00 0.00 0.00 75 1011.7
20260904075843 69 232 13.0 18.0 0.00 0.00 0.00 76 1011.8
20260904075337 69 265 12.0 18.0 0.00 0.00 0.00 76 1012.0
20260904074839 69 215 9.0 13.0 0.00 0.00 0.00 76 1012.0
20260904074338 69 237 7.0 12.0 0.00 0.00 0.00 77 1011.9
20260904073838 68 231 8.0 13.0 0.00 0.00 0.00 77 1012.0